�N����,����,�~����,�C��,���x,�C��,����,���ϕ���,�ő�u�ԕ���,�ő厞����,���˗�,�I�_���x,�n�����x,�ő啗���N��,DTYPE
"19/08/12","00:10",0.0,28.7,72.4,1000.3,19.7,0.6,1.6,44.1,0.00,23.3,28.5,"00:08:24",1
"19/08/12","00:20",0.0,28.4,73.4,1000.0,4.9,0.7,2.2,58.6,0.00,23.2,28.4,"00:18:08",1
"19/08/12","00:30",0.0,28.3,73.7,1000.3,10.6,0.7,2.2,57.0,0.00,23.2,28.3,"00:22:08",1
"19/08/12","00:40",0.0,28.2,73.8,1000.5,28.0,0.8,2.2,57.9,0.00,23.1,28.3,"00:33:36",1
"19/08/12","00:50",0.0,28.1,74.0,1000.3,37.2,0.7,2.0,49.5,0.00,23.1,28.1,"00:48:32",1
"19/08/12","01:00",0.0,28.2,73.8,1000.3,60.4,0.7,1.9,74.6,0.00,23.1,28.1,"00:51:36",1
"19/08/12","01:10",0.0,28.1,74.3,1000.0,70.4,0.8,2.7,108.3,0.00,23.1,28.1,"01:07:12",1
"19/08/12","01:20",0.0,28.1,74.0,999.8,91.7,1.1,2.4,108.4,0.00,23.1,27.9,"01:13:52",1
"19/08/12","01:30",0.0,28.1,73.8,1000.0,100.0,1.0,3.9,132.3,0.00,23.0,27.9,"01:22:24",1
"19/08/12","01:40",0.0,28.0,74.4,999.8,116.8,0.7,2.5,113.6,0.00,23.1,28.0,"01:31:28",1
"19/08/12","01:50",0.0,27.9,74.8,999.6,96.1,0.8,2.6,51.4,0.00,23.1,27.9,"01:46:16",1
"19/08/12","02:00",0.0,27.9,75.1,999.3,59.2,0.5,2.6,126.8,0.00,23.1,27.9,"01:52:24",1
"19/08/12","02:10",0.0,27.5,75.8,999.6,341.3,0.7,1.2,351.0,0.00,22.9,27.9,"02:02:16",1
"19/08/12","02:20",0.0,27.1,77.6,998.9,331.0,0.5,1.0,334.6,0.00,22.9,27.7,"02:10:56",1
"19/08/12","02:30",0.0,26.9,78.9,999.1,344.0,0.8,1.6,352.8,0.00,23.0,27.6,"02:23:04",1
"19/08/12","02:40",0.0,26.9,79.7,998.9,153.0,0.8,2.0,102.3,0.00,23.1,27.7,"02:32:00",1
"19/08/12","02:50",0.0,27.3,78.6,999.1,132.2,0.6,1.7,143.2,0.00,23.3,27.5,"02:46:32",1
"19/08/12","03:00",0.0,27.3,78.3,999.3,23.2,0.6,1.9,42.7,0.00,23.2,27.7,"02:55:44",1
"19/08/12","03:10",0.0,27.2,78.7,999.1,18.3,0.5,1.4,50.6,0.00,23.2,27.6,"03:01:36",1
"19/08/12","03:20",0.0,27.2,79.2,999.1,6.1,0.5,1.2,47.0,0.00,23.3,27.7,"03:10:40",1
"19/08/12","03:30",0.0,27.3,79.2,999.3,344.8,0.6,1.6,345.3,0.00,23.4,27.6,"03:23:12",1
"19/08/12","03:40",0.0,27.4,79.2,999.1,344.2,0.5,1.2,342.3,0.00,23.5,27.5,"03:39:12",1
"19/08/12","03:50",0.0,27.4,79.2,999.3,341.3,0.6,1.3,345.6,0.00,23.5,27.4,"03:40:48",1
"19/08/12","04:00",0.0,27.4,79.1,999.3,339.4,0.5,1.1,1.5,0.00,23.5,27.5,"03:50:08",1
"19/08/12","04:10",0.0,27.4,79.1,999.1,342.7,0.3,1.2,57.0,0.00,23.5,27.5,"04:09:20",1
"19/08/12","04:20",0.0,27.4,79.4,999.6,334.4,1.0,1.8,340.2,0.00,23.6,27.4,"04:17:36",1
"19/08/12","04:30",0.0,27.1,80.5,999.1,341.6,0.8,1.4,342.6,0.00,23.5,27.4,"04:20:32",1
"19/08/12","04:40",0.0,27.1,80.8,998.9,322.8,0.5,1.2,343.1,0.00,23.6,27.4,"04:36:40",1
"19/08/12","04:50",0.0,27.2,81.2,998.9,11.4,0.5,1.6,341.1,0.00,23.7,27.6,"04:42:08",1
"19/08/12","05:00",0.0,27.5,80.4,999.3,12.8,0.5,1.6,345.2,0.00,23.9,27.5,"04:50:32",1
"19/08/12","05:10",0.0,27.7,79.6,999.1,87.3,0.5,1.8,145.8,0.00,23.9,27.4,"05:07:28",1
"19/08/12","05:20",0.0,27.8,79.0,999.3,70.2,0.5,1.2,80.5,0.00,23.9,27.2,"05:12:40",1
"19/08/12","05:30",0.0,27.8,78.9,999.6,64.4,0.5,1.3,352.9,0.00,23.8,27.4,"05:28:32",1
"19/08/12","05:40",0.0,27.7,79.5,999.3,68.9,0.3,1.2,85.8,0.00,23.9,27.5,"05:37:28",1
"19/08/12","05:50",0.0,27.4,80.1,999.3,347.8,0.5,1.1,344.3,0.00,23.7,27.3,"05:48:08",1
"19/08/12","06:00",0.0,27.3,80.9,1000.0,343.8,0.5,0.9,349.7,0.00,23.8,27.3,"05:55:44",1
"19/08/12","06:10",0.0,27.1,81.3,999.8,337.6,0.5,1.3,340.5,0.00,23.7,27.3,"06:06:16",1
"19/08/12","06:20",0.0,27.1,81.9,1000.0,351.8,0.6,1.3,342.3,0.00,23.8,27.4,"06:13:04",1
"19/08/12","06:30",0.0,27.1,82.1,1000.3,339.7,0.5,1.1,343.8,0.00,23.8,27.2,"06:28:40",1
"19/08/12","06:40",0.0,27.2,82.0,1000.3,346.0,0.6,1.3,4.8,0.01,23.9,27.2,"06:36:24",1
"19/08/12","06:50",0.0,27.3,81.6,999.8,346.5,0.5,1.6,342.2,0.01,23.9,27.2,"06:46:40",1
"19/08/12","07:00",0.0,27.6,81.0,999.8,13.0,0.5,1.9,41.4,0.02,24.1,27.3,"06:59:20",1
"19/08/12","07:10",0.0,28.4,79.6,1000.0,92.4,0.6,1.3,86.7,0.06,24.6,27.3,"07:00:56",1
"19/08/12","07:20",0.0,29.3,75.4,999.6,98.2,1.0,2.9,97.6,0.10,24.5,27.4,"07:16:16",1
"19/08/12","07:30",0.0,29.3,73.3,999.6,111.5,1.1,2.9,113.9,0.06,24.1,27.5,"07:29:28",1
"19/08/12","07:40",0.0,29.1,75.5,999.3,100.4,1.1,3.1,107.7,0.10,24.4,27.4,"07:32:48",1
"19/08/12","07:50",0.0,29.2,74.6,999.3,105.3,1.1,2.7,126.6,0.11,24.3,27.5,"07:41:04",1
"19/08/12","08:00",0.0,29.0,75.7,999.3,97.9,1.3,2.9,97.5,0.10,24.3,27.6,"07:52:24",1
"19/08/12","08:10",0.0,29.9,73.3,1000.0,96.1,1.3,3.2,119.7,0.23,24.6,27.8,"08:04:24",1
"19/08/12","08:20",0.0,30.2,72.1,999.8,99.2,1.3,3.5,71.8,0.25,24.7,28.0,"08:19:44",1
"19/08/12","08:30",0.0,30.1,71.7,1000.0,84.9,1.6,3.9,60.4,0.24,24.5,28.0,"08:22:56",1
"19/08/12","08:40",0.0,29.9,71.7,1000.5,90.5,1.3,2.9,92.9,0.23,24.3,28.2,"08:34:48",1
"19/08/12","08:50",0.0,30.2,71.9,1000.5,107.5,1.1,2.9,49.5,0.24,24.6,28.2,"08:44:00",1
"19/08/12","09:00",0.0,30.2,69.7,1000.8,101.2,1.6,3.6,90.1,0.27,24.1,28.4,"08:52:40",1
"19/08/12","09:10",0.0,30.7,69.3,1000.8,104.1,1.5,3.1,107.5,0.29,24.5,28.4,"09:01:28",1
"19/08/12","09:20",0.0,31.1,68.1,1001.0,120.5,1.6,3.9,117.4,0.37,24.6,28.7,"09:15:04",1
"19/08/12","09:30",0.0,30.7,67.3,1000.8,108.9,1.7,3.5,152.4,0.30,24.0,28.7,"09:22:08",1
"19/08/12","09:40",0.0,30.5,66.6,1000.5,124.1,2.0,4.8,185.0,0.28,23.6,28.8,"09:30:02",1
"19/08/12","09:50",0.0,31.2,65.6,1001.0,100.7,1.5,3.9,124.3,0.29,24.0,29.0,"09:40:08",1
"19/08/12","10:00",0.0,31.0,66.7,1000.5,119.1,1.7,4.2,168.8,0.20,24.1,28.8,"09:55:12",1
"19/08/12","10:10",0.0,31.0,68.1,1000.5,116.6,1.5,2.9,131.1,0.21,24.5,29.2,"10:01:28",1
"19/08/12","10:20",0.0,31.0,65.3,1001.0,122.7,1.7,4.9,94.5,0.26,23.8,29.4,"10:15:04",1
"19/08/12","10:30",0.0,30.9,66.2,1000.5,125.7,1.8,3.7,124.0,0.19,23.9,29.1,"10:24:32",1
"19/08/12","10:40",0.0,30.7,66.5,1000.8,115.4,1.3,4.0,191.1,0.13,23.8,29.2,"10:31:20",1
"19/08/12","10:50",0.0,30.9,66.4,1000.5,134.5,1.7,4.1,127.8,0.11,23.9,29.0,"10:44:56",1
"19/08/12","11:00",0.0,30.8,66.2,1000.0,124.4,2.1,5.0,128.4,0.11,23.8,29.3,"10:57:28",1
"19/08/12","11:10",0.0,31.0,66.7,1000.0,123.3,2.0,4.4,160.0,0.14,24.1,29.1,"11:06:08",1
"19/08/12","11:20",0.0,31.3,65.4,1000.3,125.8,1.8,4.9,162.2,0.18,24.1,29.1,"11:17:36",1
"19/08/12","11:30",0.0,31.0,66.4,999.8,111.3,1.8,4.8,122.3,0.13,24.0,29.2,"11:20:16",1
"19/08/12","11:40",0.0,31.8,65.1,1000.0,129.2,2.5,5.6,126.1,0.38,24.5,29.2,"11:35:36",1
"19/08/12","11:50",0.0,32.6,63.6,1000.5,125.5,2.0,5.1,134.6,0.51,24.8,29.6,"11:42:48",1
"19/08/12","12:00",0.0,32.3,63.6,1000.5,137.5,1.7,3.7,149.2,0.25,24.6,29.9,"11:56:08",1
"19/08/12","12:10",0.0,32.2,64.0,1000.3,136.5,2.0,5.1,137.2,0.39,24.6,29.8,"12:08:56",1
"19/08/12","12:20",0.0,32.0,63.9,1000.3,151.5,2.6,5.1,160.1,0.27,24.3,29.8,"12:12:56",1
"19/08/12","12:30",0.0,31.4,65.9,1000.3,146.2,2.5,5.4,139.2,0.18,24.3,29.8,"12:28:40",1
"19/08/12","12:40",0.0,31.7,65.0,1000.0,144.6,2.0,4.3,157.2,0.10,24.3,29.8,"12:30:24",1
"19/08/12","12:50",0.0,31.4,66.1,999.8,140.4,2.0,4.7,185.1,0.11,24.3,29.7,"12:46:32",1
"19/08/12","13:00",0.0,32.2,65.2,999.6,136.8,1.8,4.5,137.9,0.21,24.9,29.7,"12:57:20",1
"19/08/12","13:10",0.0,31.8,64.0,999.8,124.2,1.7,3.4,126.3,0.17,24.2,29.8,"13:04:40",1
"19/08/12","13:20",0.0,32.4,63.4,999.3,130.2,1.8,4.1,155.5,0.19,24.6,29.8,"13:10:32",1
"19/08/12","13:30",0.0,32.7,60.4,999.6,157.2,2.0,3.3,146.4,0.27,24.1,30.2,"13:23:12",1
"19/08/12","13:40",0.0,33.4,59.7,999.6,155.9,2.6,5.1,162.0,0.54,24.5,30.0,"13:31:52",1
"19/08/12","13:50",0.0,32.8,60.2,999.8,123.1,1.6,3.9,140.6,0.26,24.1,30.2,"13:42:08",1
"19/08/12","14:00",0.0,33.1,58.2,999.8,149.2,2.5,4.9,142.8,0.33,23.8,30.3,"13:58:16",1
"19/08/12","14:10",0.0,33.7,56.4,1000.0,160.2,2.7,5.9,172.3,0.60,23.9,30.6,"14:07:24",1
"19/08/12","14:20",0.0,33.0,56.6,1000.3,162.7,3.0,6.0,188.8,0.44,23.3,30.6,"14:12:56",1
"19/08/12","14:30",0.0,33.2,55.8,1000.0,156.8,2.3,5.0,169.6,0.29,23.2,30.7,"14:20:16",1
"19/08/12","14:40",0.0,33.7,54.7,999.8,147.5,2.5,5.5,199.1,0.47,23.4,30.6,"14:30:16",1
"19/08/12","14:50",0.0,34.2,56.2,1000.0,147.5,2.0,5.0,177.1,0.37,24.3,30.8,"14:45:52",1
"19/08/12","15:00",0.0,34.0,55.3,1000.3,114.4,1.8,4.3,134.0,0.42,23.8,30.9,"14:58:40",1
"19/08/12","15:10",0.0,33.5,57.1,999.8,117.0,1.7,3.5,96.2,0.30,23.9,30.9,"15:06:56",1
"19/08/12","15:20",0.0,33.4,56.0,1000.0,141.3,2.6,5.5,152.7,0.32,23.5,30.8,"15:17:28",1
"19/08/12","15:30",0.0,33.9,56.4,999.8,169.4,2.8,6.8,200.1,0.44,24.0,31.0,"15:23:44",1
"19/08/12","15:40",0.0,33.8,55.7,999.6,144.0,1.7,4.4,136.9,0.34,23.7,31.2,"15:34:48",1
"19/08/12","15:50",0.0,34.1,55.4,1000.0,117.6,1.3,3.6,187.0,0.34,23.9,31.1,"15:45:12",1
"19/08/12","16:00",0.0,33.8,54.4,999.8,107.3,1.6,4.4,132.7,0.30,23.4,31.3,"15:53:28",1
"19/08/12","16:10",0.0,33.0,56.7,999.8,111.3,1.6,5.4,120.6,0.14,23.3,31.2,"16:01:36",1
"19/08/12","16:20",0.0,33.1,57.2,999.1,105.5,1.5,3.4,131.9,0.09,23.5,30.8,"16:12:16",1
"19/08/12","16:30",0.0,32.7,58.7,999.1,106.8,1.2,2.9,89.4,0.08,23.6,31.0,"16:24:08",1
"19/08/12","16:40",0.0,32.7,59.2,998.9,113.1,1.5,4.0,124.1,0.08,23.7,30.7,"16:35:20",1
"19/08/12","16:50",0.0,33.0,57.0,998.9,94.0,1.1,2.5,69.8,0.05,23.4,30.6,"16:48:08",1
"19/08/12","17:00",0.0,32.9,57.3,998.9,94.8,1.3,2.5,104.9,0.05,23.4,30.7,"16:57:36",1
"19/08/12","17:10",0.0,32.6,56.8,998.6,91.0,1.1,2.5,34.1,0.04,23.0,30.7,"17:05:04",1
"19/08/12","17:20",0.0,32.8,56.8,998.4,144.8,1.5,3.2,163.2,0.11,23.1,30.3,"17:15:52",1
"19/08/12","17:30",0.0,33.2,57.4,998.4,111.1,0.8,2.5,128.9,0.11,23.7,30.4,"17:20:40",1
"19/08/12","17:40",0.0,33.8,53.3,998.6,119.2,1.5,4.4,88.5,0.17,23.0,30.5,"17:35:36",1
"19/08/12","17:50",0.0,33.8,52.8,998.6,92.4,1.2,2.9,16.9,0.12,22.9,30.3,"17:44:40",1
"19/08/12","18:00",0.0,33.4,53.6,998.6,93.3,1.2,2.9,114.7,0.08,22.7,30.2,"17:57:44",1
"19/08/12","18:10",0.0,33.1,54.7,998.6,72.0,1.3,3.6,43.4,0.06,22.8,30.2,"18:00:08",1
"19/08/12","18:20",0.0,32.6,56.0,998.4,91.0,1.3,3.3,42.8,0.03,22.7,30.3,"18:12:56",1
"19/08/12","18:30",0.0,32.1,57.8,998.4,136.1,1.6,3.6,152.3,0.02,22.8,30.1,"18:24:32",1
"19/08/12","18:40",0.0,32.0,59.2,998.2,119.8,1.3,3.3,137.0,0.01,23.1,29.9,"18:31:20",1
"19/08/12","18:50",0.0,31.9,59.1,997.9,108.6,1.5,3.6,131.8,0.01,23.0,29.8,"18:43:04",1
"19/08/12","19:00",0.0,31.8,59.3,997.7,89.3,1.3,3.7,64.5,0.00,22.9,29.7,"18:54:48",1
"19/08/12","19:10",0.0,31.6,60.3,997.7,98.8,1.1,2.6,119.0,0.00,23.0,29.6,"19:00:40",1
"19/08/12","19:20",0.0,31.3,61.2,997.7,94.6,1.1,3.3,89.5,0.00,23.0,29.3,"19:16:56",1
"19/08/12","19:30",0.0,31.0,61.3,997.7,120.5,1.1,2.4,129.8,0.00,22.7,29.4,"19:25:36",1
"19/08/12","19:40",0.0,30.9,61.0,997.7,90.0,1.0,3.4,62.1,0.00,22.5,29.6,"19:39:52",1
"19/08/12","19:50",0.0,30.9,60.9,997.7,103.8,1.2,2.2,108.7,0.00,22.5,29.1,"19:44:08",1
"19/08/12","20:00",0.0,30.8,61.0,997.9,103.1,1.0,2.4,102.7,0.00,22.4,29.1,"19:50:08",1
"19/08/12","20:10",0.0,30.8,61.2,997.4,89.2,1.1,2.5,79.1,0.00,22.5,29.0,"20:03:44",1
"19/08/12","20:20",0.0,30.5,62.0,997.9,98.2,0.8,2.1,24.2,0.00,22.4,29.0,"20:15:28",1
"19/08/12","20:30",0.0,30.4,63.0,997.9,108.2,1.0,3.4,122.2,0.00,22.6,29.1,"20:29:36",1
"19/08/12","20:40",0.0,30.3,63.6,997.9,113.4,0.7,3.4,183.3,0.00,22.7,28.8,"20:30:16",1
"19/08/12","20:50",0.0,30.3,64.2,998.2,86.0,0.8,2.1,87.5,0.00,22.8,28.9,"20:47:20",1
"19/08/12","21:00",0.0,30.2,64.7,997.9,71.7,0.7,2.2,23.9,0.00,22.9,28.8,"20:58:32",1
"19/08/12","21:10",0.0,30.0,65.2,998.2,34.7,0.8,2.0,123.0,0.00,22.8,28.8,"21:00:32",1
"19/08/12","21:20",0.0,29.6,66.2,998.2,27.7,0.7,1.6,28.3,0.00,22.7,28.5,"21:15:20",1
"19/08/12","21:30",0.0,29.3,67.6,998.6,77.8,0.6,1.7,63.0,0.00,22.7,28.7,"21:25:12",1
"19/08/12","21:40",0.0,29.2,68.7,998.6,47.3,0.5,1.2,351.3,0.00,22.9,28.4,"21:36:24",1
"19/08/12","21:50",0.0,29.3,69.0,998.4,67.0,0.6,1.8,88.4,0.00,23.1,28.5,"21:46:48",1
"19/08/12","22:00",0.0,29.4,69.2,998.9,76.2,0.8,2.1,43.9,0.00,23.2,28.3,"21:57:04",1
"19/08/12","22:10",0.0,29.4,69.0,998.9,28.6,0.7,2.0,359.4,0.00,23.2,28.5,"22:06:32",1
"19/08/12","22:20",0.0,29.2,69.9,998.6,77.9,0.6,1.7,22.9,0.00,23.2,28.1,"22:10:16",1
"19/08/12","22:30",0.0,29.2,70.5,998.9,70.6,0.6,2.6,103.7,0.00,23.3,28.3,"22:28:40",1
"19/08/12","22:40",0.0,29.3,70.6,998.6,46.8,0.7,1.9,105.8,0.00,23.4,28.3,"22:30:40",1
"19/08/12","22:50",0.0,29.3,70.7,998.6,92.5,1.1,2.7,177.6,0.00,23.5,28.2,"22:47:52",1
"19/08/12","23:00",0.0,29.4,70.4,998.2,86.2,1.2,2.7,136.4,0.00,23.5,27.8,"22:54:08",1
"19/08/12","23:10",0.0,29.4,70.3,998.4,77.6,1.1,2.6,79.5,0.00,23.5,28.2,"23:00:32",1
"19/08/12","23:20",0.0,29.4,70.4,998.6,84.7,1.2,2.8,53.5,0.00,23.5,28.2,"23:14:24",1
"19/08/12","23:30",0.0,29.2,70.9,998.6,66.9,0.7,2.8,120.1,0.00,23.4,28.0,"23:26:16",1
"19/08/12","23:40",0.0,29.1,71.7,998.6,69.0,0.6,1.1,123.1,0.00,23.5,27.9,"23:32:32",1
"19/08/12","23:50",0.0,29.0,72.2,998.4,69.5,0.6,1.8,118.9,0.00,23.5,28.0,"23:43:12",1
"19/08/12","24:00",0.0,29.0,72.5,997.9,92.5,0.8,2.0,56.0,0.00,23.6,27.9,"23:56:40",1
